Weather past 2 weeks in Cayenne, French Guiana

Now
81 °F

Passing clouds.


Feels Like: 85 °F
Forecast: N/A
Wind: 6 mph from Northeast

Location: Cayenne / Rochambeau

Current Time: Dec 18, 2014 at 7:53:53 PM

Latest Report: Dec 18, 2014 at 7:00 PM


Visibility: N/A

Pressure: 29.83 "Hg

Humidity: 79%

Dew point: 73 °F

Location of CayenneLocation

Historic Weather in Cayenne — Graph

°F

Cayenne temperature yesterday

Maximum temperature yesterday: 88 °F (at 2:30 PM)
Minimum temperature yesterday: 75 °F (at 1:00 AM)
Average temperature yesterday: 80 °F

Past Weeks' High & Low Weather Summary

 TemperatureHumidityPressure
High88 °F (Dec 4, 1:00 PM)100% (Dec 4, 5:00 AM)29.95 "Hg (Dec 4, 5:00 AM)
Low72 °F (Dec 6, 6:00 AM)55% (Dec 7, 2:30 PM)29.77 "Hg (Dec 3, 7:00 PM)
Average79 °F83%29.86 "Hg
* Reported Dec 3 7:00 PM — Dec 18 7:00 PM, Cayenne, Weather by CustomWeather, © 2014

Note: Actual official high and low records may vary slightly from our data, if they occured in-between our weather recording intervals... More about our weather records

Advertising

Cayenne weather history for previous 24 hours

 ConditionsComfort  
Time TempWeatherWind HumidityBarometerVisibility
7:00 PM
Dec 18
81 °FPassing clouds.6 mph79%29.83 "HgN/A
6:30 PM82 °FPassing clouds.8 mph74%29.83 "HgN/A
6:00 PM82 °FBroken clouds.10 mph74%29.83 "HgN/A
5:30 PM84 °FScattered clouds.10 mph70%29.83 "HgN/A
5:00 PM84 °FPassing clouds.14 mph66%29.83 "HgN/A
4:30 PM84 °FPassing clouds.12 mph66%29.83 "HgN/A
4:00 PM86 °FBroken clouds.14 mph62%29.83 "HgN/A
3:30 PM84 °FPartly sunny.14 mph66%29.83 "HgN/A
3:00 PM86 °FScattered clouds.14 mph62%29.83 "HgN/A
2:30 PM88 °FBroken clouds.14 mph62%29.83 "HgN/A
2:00 PM86 °FBroken clouds.14 mph66%29.86 "HgN/A
1:30 PM88 °FScattered clouds.14 mph59%29.86 "HgN/A
1:00 PM86 °FScattered clouds.13 mph62%29.89 "HgN/A
12:30 PM86 °FScattered clouds.12 mph62%29.89 "HgN/A
12:00 PM84 °FBroken clouds.12 mph66%29.92 "HgN/A
11:30 AM84 °FBroken clouds.10 mph70%29.92 "HgN/A
11:00 AM84 °FPartly sunny.13 mph70%29.92 "HgN/A
10:30 AM82 °FBroken clouds.13 mph79%29.95 "HgN/A
10:00 AM84 °FBroken clouds.13 mph70%29.95 "HgN/A
9:30 AM81 °FPartly sunny.6 mph89%29.92 "HgN/A
9:00 AM81 °FLight rain. Partly sunny.8 mph79%29.92 "HgN/A
8:30 AM81 °FWarm.2 mph84%29.92 "HgN/A
8:00 AM77 °FScattered clouds.No wind94%29.89 "HgN/A
7:30 AM75 °FPartly sunny.2 mph94%29.89 "HgN/A
7:00 AM73 °FPassing clouds.2 mph100%29.86 "HgN/A
6:30 AM73 °FBroken clouds.No wind100%29.86 "HgN/A
6:00 AM73 °FPartly cloudy.No wind100%29.86 "HgN/A
5:30 AM73 °FMild.No wind94%29.86 "HgN/A
5:00 AM73 °FPassing clouds.1 mph100%29.83 "HgN/A
4:30 AM73 °FPassing clouds.1 mph94%29.83 "HgN/A
4:00 AM73 °FPassing clouds.No wind94%29.83 "HgN/A
3:30 AM73 °FPassing clouds.No wind94%29.83 "HgN/A
3:00 AM75 °FPassing clouds.1 mph94%29.83 "HgN/A
2:30 AM75 °FMild.2 mph94%29.86 "HgN/A
2:00 AM75 °FPassing clouds.2 mph94%29.86 "HgN/A
1:30 AM75 °FMild.2 mph94%29.86 "HgN/A
12:30 AM75 °FPassing clouds.No wind94%29.89 "HgN/A
12:00 AM75 °FPassing clouds.No wind94%29.89 "HgN/A
11:30 PM
Dec 17
77 °FPartly cloudy.1 mph89%29.89 "HgN/A
11:00 PM77 °FPassing clouds.No wind89%29.89 "HgN/A
10:30 PM77 °FPassing clouds.No wind89%29.89 "HgN/A
10:00 PM77 °FPassing clouds.No wind89%29.89 "HgN/A
9:30 PM79 °FPassing clouds.No wind84%29.89 "HgN/A
9:00 PM79 °FPassing clouds.2 mph84%29.89 "HgN/A
8:30 PM79 °FWarm.No wind84%29.89 "HgN/A
8:00 PM79 °FWarm.2 mph84%29.86 "HgN/A
7:30 PM81 °FPassing clouds.3 mph79%29.86 "HgN/A
7:00 PM81 °FPassing clouds.5 mph79%29.86 "HgN/A
Weather by CustomWeather, © 2014

See weather overviewHow to use our weather pages